Home > Weather > Haql > Past weeks

Flag for Saudi Arabia Past Weather in Haql, Saudi Arabia — Yesterday and Last 2 Weeks

Now
104 °F

Sunny.


Feels Like: 101 °F
Forecast: 79 / 98 °F
Wind: 18 mph from North

Location: Eilat

Current Time: Jun 26, 2016 at 8:20:15 PM

Latest Report: Jun 26, 2016 at 7:50 PM


Visibility: 10 mi

Pressure: 29.65 "Hg

Humidity: 16%

Dew Point: 50 °F

Location of HaqlLocation

Past Weather in Haql — Graph

°F

Haql Temperature Yesterday

Maximum temperature yesterday: 109 °F (at 2:50 PM)
Minimum temperature yesterday: 86 °F (at 6:50 AM)
Average temperature yesterday: 102 °F

High & Low Weather Summary for the Past Weeks

 TemperatureHumidityPressure
High111 °F (Jun 14, 2:50 PM)100% (Jun 15, 1:50 PM)29.95 "Hg (Jun 15, 1:50 PM)
Low75 °F (Jun 16, 5:50 AM)8% (Jun 14, 3:50 PM)29.53 "Hg (Jun 24, 4:50 PM)
Average97 °F21%29.70 "Hg
* Reported Jun 12 6:50 AM — Jun 26 6:50 PM, Haql, Weather by CustomWeather, © 2016

Note: Actual official high and low records may vary slightly from our data, if they occured in-between our weather recording intervals... More about our weather records

Advertising

Haql Weather History for the Previous 24 Hours

Scroll right to see more
 ConditionsComfort  
Time TempWeatherWind HumidityBarometerVisibility
6:50 PM
Sun, Jun 26
106 °FSunny.20 mph13%29.65 "Hg10 mi
5:50 PM108 °FSunny.21 mph14%29.62 "Hg10 mi
4:50 PM109 °FSunny.21 mph11%29.65 "Hg10 mi
3:50 PM109 °FSunny.21 mph11%29.65 "Hg10 mi
2:50 PM109 °FSunny.20 mph11%29.68 "Hg10 mi
1:50 PM108 °FSunny.18 mph14%29.71 "Hg10 mi
12:50 PM106 °FSunny.17 mph15%29.74 "Hg10 mi
11:50 AM104 °FSunny.17 mph17%29.77 "Hg10 mi
10:50 AM99 °FSunny.13 mph25%29.77 "Hg10 mi
9:50 AM95 °FSunny.12 mph28%29.77 "Hg10 mi
8:50 AM91 °FSunny.13 mph32%29.80 "Hg10 mi
7:50 AM88 °FSunny.7 mph35%29.77 "Hg10 mi
6:50 AM86 °FSunny.10 mph31%29.77 "Hg10 mi
5:50 AM86 °FClear.8 mph29%29.74 "Hg10 mi
10:50 PM
Sat, Jun 25
99 °FClear.21 mph16%29.68 "Hg10 mi
9:50 PM102 °FClear.17 mph17%29.65 "Hg10 mi
8:50 PM102 °FClear.20 mph17%29.62 "Hg10 mi
Weather by CustomWeather, © 2016

See weather overviewHow to use our weather pages